Station BSBM4 - Big Sable Point, MI Image indicating link to RSS feed of recent meteorological observations for station BSBM4


Conditions at BSBM4 as of
(4:40 pm EDT)
2040 GMT on 04/23/2024:
     

Click on the graph icon in the table below to see a time series plot of the last five days of that observation.

5-day plot - Wind Direction Wind Direction (WDIR):SSW ( 200 deg true )
5-day plot - Wind Speed Wind Speed (WSPD):2.1 m/s
5-day plot - Wind Gust Wind Gust (GST):4.1 m/s
5-day plot - Atmospheric Pressure Atmospheric Pressure (PRES):1006.1 mb
5-day plot - Air Temperature Air Temperature (ATMP): 8.3 °C
5-day plot - Wind Chill Wind Chill (CHILL): 7.1 °C
5-day plot - Wind Speed at 10 Meters Wind Speed at 10 meters (WSPD10M): 2 m/s
5-day plot - Wind Speed at 20 Meters Wind Speed at 20 meters (WSPD20M): 3 m/s
5-day plot -  Wind Speed, Wind Gust and Atmospheric Pressure Combined plot of Wind Speed, Gust, and Air Pressure
Previous observations
TIME
(EDT)
5-day plot - Wind Direction
WDIR
 
5-day plot - Wind Speed
WSPD
m/s
5-day plot - Wind Gust
GST
m/s
5-day plot - Wave Height
WVHT
m
5-day plot - Dominant Wave Period
DPD
sec
5-day plot - Average Wave Period
APD
sec
5-day plot - Mean Wave Direction
MWD
 
5-day plot - Atmospheric Pressure
PRES
mb
5-day plot - Pressure Tendency
PTDY
mb
5-day plot - Air Temperature
ATMP
°C
5-day plot - Water Temperature
WTMP
°C
5-day plot - Dew Point
DEWP
°C
5-day plot - Salinity
SAL
psu
5-day plot - Visibility
VIS
km
5-day plot - Tide (above MLLW)
TIDE
m
2024-04-23 04:30 pm SW 4.1 6.7----1006.4- 8.5-----
2024-04-23 04:20 pmSSW 4.1 11.8----1006.1- 10.0-----
2024-04-23 04:10 pm S 7.7 11.3----1005.1- 10.7-----
2024-04-23 04:00 pm S 8.2 11.3----1004.7 -1.1 11.7-----
2024-04-23 03:50 pm S 7.7 11.3----1004.7- 12.4-----
2024-04-23 03:40 pm S 8.8 11.3----1005.1- 12.2-----
2024-04-23 03:30 pm S 8.8 11.3----1005.1- 12.2-----
2024-04-23 03:20 pmSSE 8.2 11.8----1005.1- 12.1-----
2024-04-23 03:10 pm S 7.7 10.8----1005.1- 12.2-----
2024-04-23 03:00 pm S 7.2 10.3----1005.1 -0.7 12.2-----
2024-04-23 02:50 pm S 7.7 10.3----1005.1- 12.3-----
2024-04-23 02:40 pm S 7.7 11.3----1005.1- 12.3-----
2024-04-23 02:30 pm S 7.7 10.8----1005.1- 12.2-----
2024-04-23 02:20 pm S 8.2 10.8----1005.4- 11.7-----
2024-04-23 02:10 pm S 7.7 10.8----1005.4- 11.6-----
2024-04-23 02:00 pm S 7.2 10.8----1005.4 +0.0 11.5-----
2024-04-23 01:50 pm S 7.7 10.8----1005.8- 11.9-----
2024-04-23 01:40 pm S 7.7 9.8----1005.8- 12.0-----
2024-04-23 01:30 pm S 6.2 9.3----1005.8- 11.7-----
2024-04-23 01:20 pm S 7.2 9.8----1005.8- 11.4-----
2024-04-23 01:10 pm S 7.7 9.8----1005.8- 11.0-----
2024-04-23 01:00 pm S 7.2 10.8----1005.8 +1.1 11.4-----
2024-04-23 12:50 pm S 7.7 10.3----1005.8- 10.6-----
2024-04-23 12:40 pm S 7.7 10.3----1005.8- 10.6-----
2024-04-23 12:30 pm S 7.2 10.3----1005.8- 9.8-----
2024-04-23 12:20 pm S 7.2 10.3----1005.8- 9.8-----
2024-04-23 12:10 pm S 8.2 11.3----1005.8- 10.1-----
2024-04-23 12:00 pm S 7.7 10.3----1005.8 +1.1 9.8-----
2024-04-23 11:50 am S 8.2 11.3----1005.8- 10.1-----
2024-04-23 11:40 am S 6.2 9.8----1005.8- 10.1-----
2024-04-23 11:30 amSSE 5.7 7.7----1005.8- 9.9-----
2024-04-23 11:20 am S 6.2 8.2----1005.8- 9.6-----
2024-04-23 11:10 am S 5.1 8.2----1005.8- 9.4-----
2024-04-23 11:00 am S 5.7 8.2----1005.4 +0.7 9.2-----
2024-04-23 10:50 amSSW 6.2 9.3----1005.4- 9.2-----
2024-04-23 10:40 am S 5.1 8.2----1005.1- 8.9-----
2024-04-23 10:30 am S 6.2 7.7----1004.7- 8.9-----
2024-04-23 10:20 am S 6.2 8.2----1004.7- 8.6-----
2024-04-23 10:10 am S 6.2 8.2----1005.1- 8.5-----
2024-04-23 10:00 am S 5.1 11.8----1004.7 +0.0 8.8-----
2024-04-23 09:50 am S 8.2 11.3----1004.7- 9.4-----
2024-04-23 09:40 am S 6.2 8.2----1004.7- 9.3-----
2024-04-23 09:30 am S 6.2 8.2----1005.1- 9.4-----
2024-04-23 09:20 am S 6.2 8.8----1005.1- 8.7-----
2024-04-23 09:10 amSSE 6.2 8.8----1004.7- 8.6-----
2024-04-23 09:00 am S 6.7 8.2----1004.7 +0.0 8.4-----
2024-04-23 08:50 am S 5.1 8.2----1004.7- 8.3-----
2024-04-23 08:40 amSSE 5.1 8.8----1004.7- 8.1-----
2024-04-23 08:30 amSSE 6.2 8.2----1004.7- 8.1-----
2024-04-23 08:20 am S 6.2 9.8----1005.1- 8.0-----
2024-04-23 08:10 amSSE 6.2 11.3----1004.7- 8.2-----
2024-04-23 08:00 am S 7.2 11.3----1004.7 -0.7 8.2-----
2024-04-23 07:50 am S 9.3 12.9----1005.1- 8.3-----
2024-04-23 07:48 am S 9.3 12.9----1004.7- 8.3-----
2024-04-23 07:40 am S 9.3 11.3----1004.7- 8.2-----
2024-04-23 07:30 am S 7.7 11.8----1005.1- 7.8-----
2024-04-23 07:20 am S 7.2 10.3----1004.7- 7.9-----
2024-04-23 07:10 am S 6.7 10.8----1005.1- 7.9-----
2024-04-23 07:00 am S 8.2 11.8----1004.7 -1.1 7.9-----
2024-04-23 06:50 am S 8.2 10.8----1004.7- 7.8-----
2024-04-23 06:40 am S 7.7 10.8----1004.7- 7.7-----
2024-04-23 06:30 am S 9.3 11.8----1004.7- 7.9-----
2024-04-23 06:20 am S 8.8 12.4----1004.7- 8.1-----
2024-04-23 06:10 am S 9.3 12.4----1004.7- 8.5-----
2024-04-23 06:00 am S 9.8 12.9----1004.7 -2.4 8.5-----
2024-04-23 05:50 am S 9.3 12.9----1004.7- 8.6-----
2024-04-23 05:40 am S 9.8 13.4----1005.1- 8.8-----
2024-04-23 05:30 am S 9.3 13.9----1005.1- 8.8-----
2024-04-23 05:20 am S 10.3 13.4----1005.4- 8.5-----
2024-04-23 05:18 am S 9.3 12.9----1005.4- 8.4-----
2024-04-23 05:10 am S 9.3 13.4----1005.4- 8.3-----
2024-04-23 05:00 am S 9.3 12.9----1005.4 -3.7 8.3-----
2024-04-23 04:50 am S 9.3 12.4----1005.4- 8.6-----
2024-04-23 04:40 am S 9.8 12.9----1005.8- 8.7-----
2024-04-23 04:30 am S 9.3 12.9----1005.8- 8.9-----
2024-04-23 04:20 am S 9.8 13.4----1005.8- 8.7-----
2024-04-23 04:12 am S 9.8 13.4----1005.8- 9.0-----
2024-04-23 04:10 am S 9.3 13.4----1005.8- 9.0-----
2024-04-23 04:00 am S 10.3 14.9----1005.8 -4.4 9.5-----
2024-04-23 03:50 am S 10.3 13.9----1005.8- 9.8-----
2024-04-23 03:40 am S 9.3-----1006.4- 10.0-----
2024-04-23 03:30 am S 9.8 12.9----1006.4- 9.5-----
2024-04-23 03:20 amSSE 8.8 10.8----1006.8- 9.2-----
2024-04-23 03:10 amSSE 8.8 12.9----1007.1- 9.4-----
2024-04-23 03:03 amSSE 8.2 12.9----1007.1- 9.3-----
2024-04-23 03:00 amSSE 7.7 12.4----1007.1 -2.4 9.3-----
2024-04-23 02:50 amSSE 7.7 11.3----1007.1- 9.2-----
2024-04-23 02:40 amSSE 7.2 10.3----1007.1- 8.6-----
2024-04-23 02:30 amSSE 7.2 10.3----1007.5- 7.8-----
2024-04-23 02:20 amSSE 6.2 9.8----1008.1- 7.4-----
2024-04-23 02:10 amSSE 5.7 8.2----1008.5- 7.4-----
2024-04-23 02:00 amSSE 5.7 7.7----1009.1 -0.7 7.5-----
2024-04-23 01:50 amSSE 5.7 7.2----1009.1- 7.5-----
2024-04-23 01:40 am S 5.7 12.9----1009.1- 7.0-----
2024-04-23 01:30 am S 5.1 8.2----1009.5- 7.1-----
2024-04-23 01:20 amSSW 6.2 7.7----1009.8- 6.8-----
2024-04-23 01:10 amSSW 6.2 9.3----1010.2- 6.9-----
2024-04-23 01:00 amSSW 7.2 9.8----1010.2 -0.3 7.2-----
2024-04-23 12:50 am SW 8.8 10.3----1010.2- 7.5-----
2024-04-23 12:40 am SW 7.7 9.8----1010.2- 7.4-----
2024-04-23 12:30 amSSW 7.7 10.3----1010.2- 8.1-----
2024-04-23 12:20 amSSW 7.7 10.3----1009.8- 8.2-----
2024-04-23 12:10 am S 6.2 8.8----1009.5- 8.4-----
2024-04-23 12:00 am S 5.7 8.8----1009.5 -0.7 8.5-----
2024-04-22 11:50 pm S 5.7 9.3----1009.5- 8.4-----
2024-04-22 11:40 pm S 6.2 9.3----1009.5- 8.4-----
2024-04-22 11:30 pm S 6.7 9.3----1009.5- 8.4-----
2024-04-22 11:20 pm S 6.2 9.8----1009.8- 8.5-----
2024-04-22 11:10 pm S 6.7 10.8----1009.8- 8.6-----
2024-04-22 11:00 pm S 7.2 9.8----1009.8 -0.7 8.5-----
2024-04-22 10:50 pm S 6.7 9.8----1010.2- 8.6-----
2024-04-22 10:40 pm S 7.7 10.8----1010.2- 8.5-----
2024-04-22 10:30 pm S 7.2 9.3----1010.2- 8.3-----
2024-04-22 10:20 pm S 7.2 10.8----1010.5- 8.6-----
2024-04-22 10:10 pm S 8.2 11.8----1010.5- 8.7-----
2024-04-22 10:00 pm S 7.2 10.3----1010.5 -1.0 8.8-----
2024-04-22 09:50 pm S 7.7 10.8----1010.5- 9.0-----
2024-04-22 09:40 pm S 7.2 9.8----1010.5- 9.0-----
2024-04-22 09:30 pm S 6.7 9.8----1010.5- 9.2-----
2024-04-22 09:20 pm S 7.2 10.8----1010.5- 9.3-----
2024-04-22 09:10 pm S 7.7 11.3----1010.2- 9.5-----
2024-04-22 09:00 pm S 7.7 10.3----1010.2 -2.3 9.5-----
2024-04-22 08:50 pm S 7.7 10.8----1010.2- 9.7-----
2024-04-22 08:40 pm S 7.2 11.3----1010.2- 9.9-----
2024-04-22 08:30 pm S 7.7 11.8----1010.2- 10.1-----
2024-04-22 08:20 pm S 8.2 11.3----1010.2- 10.2-----
2024-04-22 08:10 pm S 8.8 12.4----1010.5- 10.4-----
2024-04-22 08:00 pm S 8.8 11.3----1010.5 -2.7 10.7-----
2024-04-22 07:50 pm S 7.7 11.8----1010.8- 11.1-----
2024-04-22 07:40 pm S 8.2 11.3----1010.8- 10.8-----
2024-04-22 07:30 pm S 7.7 11.8----1011.2- 10.9-----
2024-04-22 07:20 pm S 8.8 11.8----1011.2- 10.7-----
2024-04-22 07:10 pm S 8.8 12.4----1011.5- 10.7-----
2024-04-22 07:00 pm S 8.8 12.9----1011.5 -3.1 10.7-----
2024-04-22 06:50 pm S 9.8 12.9----1011.9- 10.6-----
2024-04-22 06:40 pm S 7.7 11.3----1012.2- 10.5-----
2024-04-22 06:30 pm S 7.7 11.8----1012.2- 10.5-----
2024-04-22 06:20 pm S 8.2 11.3----1012.2- 10.3-----
2024-04-22 06:10 pm S 7.7 10.8----1012.5- 10.7-----
2024-04-22 06:00 pm S 7.7 10.8----1012.5 -3.1 10.6-----
2024-04-22 05:50 pm S 7.2 10.3----1012.5- 10.2-----
2024-04-22 05:40 pm S 8.8 11.3----1012.5- 10.1-----
2024-04-22 05:30 pm S 8.8 11.8----1012.5- 10.4-----
2024-04-22 05:20 pm S 8.2 11.8----1012.9- 10.4-----
2024-04-22 05:10 pm S 8.8 10.8----1012.9- 10.4-----
2024-04-22 05:00 pm S 8.2 12.4----1013.2 -3.1 10.3-----
2024-04-22 04:50 pm S 9.3 12.9----1013.2- 10.4-----